Location: Pittman
(37.9557°N, 80.9209°W)
Time: 14:35:29
(UTC+00:00)

Envisat - Pass Details

Date: 23 April 2026
Orbit: 761 x 762 km, 98.4° (Epoch: 15 May)

Event Time Altitude Azimuth Distance (km) Brightness Sun altitude
Rises 09:36:21 0° 349° (N) 3,230 6.5 -12.0°
Reaches altitude 10° 09:40:23 10° 317° (NW) 2,298 5.3 -11.3°
Maximum altitude 09:41:55 11° 299° (WNW) 2,202 5.0 -11.0°
Drops below altitude 10° 09:43:26 10° 281° (WNW) 2,294 5.0 -10.8°
Enters shadow 09:43:54 - 276° (W) 2,355 5.0 -10.7°
